• In Hungary
  • List of Countries
  • For 7 days
  • Water Temperature
  • Satellite Maps
  • Weather Map
  • News
  • Weather Widgets
  • user-avatar
    Login

    Hourly Weather Shymkent

    Today, 19 September, Wednesday

    Time Temperature Precipitation Wind Pressure Humidity
    00:00 +24°C° 0.1 mm 2 mps 714 mmHg 22%
    01:00 +24°C° 0.1 mm 2 mps 714 mmHg 22%
    02:00 +24°C° 0.1 mm 2 mps 714 mmHg 22%
    03:00 +24°C° 0 mm 2 mps 714 mmHg 22%
    04:00 +24°C° 0 mm 1 mps 714 mmHg 21%
    05:00 +24°C° 0 mm 1 mps 714 mmHg 21%
    06:00 +25°C° 0 mm 1 mps 714 mmHg 20%
    07:00 +25°C° 0 mm 1 mps 714 mmHg 19%
    08:00 +26°C° 0 mm 1 mps 715 mmHg 18%
    09:00 +28°C° 0 mm 2 mps 715 mmHg 17%
    10:00 +29°C° 0 mm 2 mps 715 mmHg 16%
    11:00 +31°C° 0 mm 3 mps 715 mmHg 15%
    12:00 +33°C° 0 mm 3 mps 715 mmHg 14%
    13:00 +34°C° 0 mm 3 mps 715 mmHg 13%
    14:00 +35°C° 0 mm 4 mps 714 mmHg 12%
    15:00 +34°C° 0 mm 4 mps 714 mmHg 13%
    16:00 +34°C° 0 mm 4 mps 714 mmHg 13%
    17:00 +33°C° 0 mm 4 mps 714 mmHg 14%
    18:00 +30°C° 0 mm 3 mps 714 mmHg 16%
    19:00 +28°C° 0 mm 2 mps 713 mmHg 18%
    20:00 +26°C° 0 mm 2 mps 713 mmHg 20%
    21:00 +26°C° 0 mm 2 mps 713 mmHg 20%
    22:00 +25°C° 0 mm 3 mps 713 mmHg 21%
    23:00 +25°C° 0 mm 3 mps 713 mmHg 21%

    Tomorrow, 20 September, Thursday

    Time Temperature Precipitation Wind Pressure Humidity
    00:00 +25°C° 0 mm 3 mps 713 mmHg 21%
    01:00 +25°C° 0 mm 3 mps 713 mmHg 21%
    02:00 +24°C° 0 mm 3 mps 713 mmHg 21%
    03:00 +24°C° 0 mm 3 mps 713 mmHg 22%
    04:00 +22°C° 0 mm 3 mps 713 mmHg 24%
    05:00 +23°C° 0 mm 2 mps 714 mmHg 25%
    06:00 +21°C° 0 mm 2 mps 714 mmHg 28%
    07:00 +21°C° 0 mm 2 mps 714 mmHg 31%
    08:00 +21°C° 0 mm 2 mps 715 mmHg 35%
    09:00 +24°C° 0.2 mm 3 mps 715 mmHg 32%
    10:00 +25°C° 0.2 mm 4 mps 715 mmHg 29%
    11:00 +27°C° 0.2 mm 5 mps 715 mmHg 27%
    12:00 +27°C° 0.2 mm 5 mps 715 mmHg 26%
    13:00 +28°C° 0.2 mm 6 mps 715 mmHg 26%
    14:00 +28°C° 0.2 mm 7 mps 715 mmHg 26%
    15:00 +28°C° 0.1 mm 7 mps 715 mmHg 26%
    16:00 +28°C° 0.1 mm 7 mps 715 mmHg 27%
    17:00 +28°C° 0.1 mm 7 mps 715 mmHg 27%
    18:00 +26°C° 0.1 mm 6 mps 715 mmHg 29%
    19:00 +25°C° 0.1 mm 5 mps 715 mmHg 30%
    20:00 +23°C° 0.1 mm 4 mps 715 mmHg 31%
    21:00 +22°C° 0 mm 4 mps 716 mmHg 31%
    22:00 +22°C° 0 mm 4 mps 716 mmHg 31%
    23:00 +21°C° 0 mm 3 mps 716 mmHg 31%

    Day after tomorrow, 21 September, Friday

    Time Temperature Precipitation Wind Pressure Humidity
    00:00 +19°C° 0 mm 3 mps 716 mmHg 36%
    01:00 +18°C° 0 mm 3 mps 716 mmHg 41%
    02:00 +17°C° 0 mm 2 mps 717 mmHg 47%
    03:00 +16°C° 0 mm 2 mps 717 mmHg 48%
    04:00 +16°C° 0 mm 2 mps 717 mmHg 49%
    05:00 +16°C° 0 mm 2 mps 717 mmHg 50%
    06:00 +16°C° 0 mm 2 mps 718 mmHg 49%
    07:00 +16°C° 0 mm 2 mps 718 mmHg 47%
    08:00 +17°C° 0 mm 2 mps 719 mmHg 46%
    09:00 +18°C° 0 mm 2 mps 719 mmHg 42%
    10:00 +20°C° 0 mm 3 mps 719 mmHg 38%
    11:00 +21°C° 0 mm 3 mps 720 mmHg 34%
    12:00 +22°C° 0 mm 4 mps 719 mmHg 32%
    13:00 +23°C° 0 mm 4 mps 719 mmHg 30%
    14:00 +25°C° 0 mm 5 mps 719 mmHg 28%
    15:00 +23°C° 0 mm 5 mps 719 mmHg 28%
    16:00 +23°C° 0 mm 4 mps 719 mmHg 28%
    17:00 +22°C° 0 mm 4 mps 719 mmHg 28%
    18:00 +21°C° 0 mm 3 mps 719 mmHg 31%
    19:00 +19°C° 0 mm 2 mps 719 mmHg 33%
    20:00 +19°C° 0 mm 1 mps 719 mmHg 35%
    21:00 +17°C° 0 mm 2 mps 719 mmHg 36%
    22:00 +17°C° 0 mm 2 mps 719 mmHg 37%
    23:00 +16°C° 0 mm 2 mps 719 mmHg 37%

    22 September, Saturday

    Time Temperature Precipitation Wind Pressure Humidity
    00:00 +16°C° 0 mm 2 mps 718 mmHg 38%
    01:00 +16°C° 0 mm 2 mps 718 mmHg 39%
    02:00 +16°C° 0 mm 1 mps 718 mmHg 40%
    03:00 +16°C° 0 mm 2 mps 718 mmHg 41%
    04:00 +16°C° 0 mm 2 mps 718 mmHg 42%
    05:00 +16°C° 0 mm 2 mps 718 mmHg 43%
    06:00 +17°C° 0 mm 2 mps 719 mmHg 41%
    07:00 +18°C° 0 mm 2 mps 719 mmHg 39%
    08:00 +19°C° 0 mm 2 mps 719 mmHg 36%
    09:00 +20°C° 0 mm 3 mps 719 mmHg 33%
    10:00 +22°C° 0 mm 4 mps 719 mmHg 30%
    11:00 +25°C° 0 mm 4 mps 720 mmHg 27%
    12:00 +25°C° 0 mm 5 mps 719 mmHg 26%
    13:00 +26°C° 0 mm 5 mps 719 mmHg 25%
    14:00 +26°C° 0 mm 5 mps 719 mmHg 24%
    15:00 +26°C° 0 mm 5 mps 719 mmHg 25%
    16:00 +25°C° 0 mm 4 mps 718 mmHg 26%
    17:00 +25°C° 0 mm 4 mps 718 mmHg 27%
    18:00 +22°C° 0 mm 3 mps 718 mmHg 31%
    19:00 +21°C° 0 mm 2 mps 718 mmHg 35%
    20:00 +20°C° 0 mm 1 mps 718 mmHg 38%
    21:00 +20°C° 0 mm 1 mps 718 mmHg 39%
    22:00 +18°C° 0 mm 2 mps 718 mmHg 40%
    23:00 +18°C° 0 mm 2 mps 718 mmHg 41%

    23 September, Sunday

    Time Temperature Precipitation Wind Pressure Humidity
    00:00 +18°C° 0 mm 2 mps 718 mmHg 41%
    01:00 +17°C° 0 mm 2 mps 718 mmHg 41%
    02:00 +17°C° 0 mm 2 mps 718 mmHg 41%
    03:00 +17°C° 0 mm 2 mps 718 mmHg 41%
    04:00 +17°C° 0 mm 2 mps 718 mmHg 42%
    05:00 +17°C° 0 mm 2 mps 718 mmHg 42%
    06:00 +18°C° 0 mm 2 mps 718 mmHg 40%
    07:00 +19°C° 0 mm 2 mps 718 mmHg 38%
    08:00 +20°C° 0 mm 1 mps 719 mmHg 36%
    09:00 +21°C° 0 mm 2 mps 719 mmHg 35%
    10:00 +22°C° 0 mm 3 mps 719 mmHg 34%
    11:00 +23°C° 0 mm 4 mps 719 mmHg 32%
    12:00 +25°C° 0 mm 4 mps 718 mmHg 32%
    13:00 +25°C° 0 mm 4 mps 718 mmHg 32%
    14:00 +26°C° 0 mm 5 mps 718 mmHg 32%
    15:00 +25°C° 0 mm 5 mps 718 mmHg 34%
    16:00 +23°C° 0 mm 4 mps 718 mmHg 35%
    17:00 +23°C° 0 mm 4 mps 718 mmHg 37%
    18:00 +21°C° 0 mm 3 mps 718 mmHg 39%
    19:00 +19°C° 0 mm 2 mps 718 mmHg 42%
    20:00 +19°C° 0 mm 1 mps 718 mmHg 44%
    21:00 +18°C° 0 mm 1 mps 718 mmHg 45%
    22:00 +18°C° 0 mm 1 mps 718 mmHg 47%
    23:00 +16°C° 0 mm 1 mps 718 mmHg 48%

    24 September, Monday

    Time Temperature Precipitation Wind Pressure Humidity
    00:00 +16°C° 0 mm 1 mps 718 mmHg 49%
    01:00 +15°C° 0 mm 1 mps 718 mmHg 50%
    02:00 +15°C° 0 mm 1 mps 718 mmHg 52%
    03:00 +14°C° 0 mm 1 mps 718 mmHg 52%
    04:00 +14°C° 0 mm 1 mps 718 mmHg 53%
    05:00 +14°C° 0 mm 1 mps 718 mmHg 53%
    06:00 +15°C° 0 mm 1 mps 718 mmHg 50%
    07:00 +16°C° 0 mm 1 mps 718 mmHg 47%
    08:00 +18°C° 0 mm 1 mps 719 mmHg 43%
    09:00 +18°C° 0 mm 2 mps 719 mmHg 39%
    10:00 +20°C° 0 mm 2 mps 719 mmHg 35%
    11:00 +21°C° 0 mm 3 mps 719 mmHg 30%
    12:00 +22°C° 0 mm 3 mps 719 mmHg 28%
    13:00 +24°C° 0 mm 3 mps 719 mmHg 25%
    14:00 +25°C° 0 mm 3 mps 719 mmHg 22%
    15:00 +24°C° 0 mm 3 mps 719 mmHg 23%
    16:00 +24°C° 0 mm 3 mps 719 mmHg 23%
    17:00 +24°C° 0 mm 3 mps 719 mmHg 23%
    18:00 +21°C° 0 mm 2 mps 719 mmHg 27%
    19:00 +19°C° 0 mm 2 mps 719 mmHg 31%
    20:00 +19°C° 0 mm 1 mps 718 mmHg 34%
    21:00 +17°C° 0 mm 2 mps 718 mmHg 35%
    22:00 +17°C° 0 mm 2 mps 718 mmHg 37%
    23:00 +16°C° 0 mm 2 mps 718 mmHg 38%
    Show more